Location: Unspecified
(0.0000°N, 0.0000°E)
Time: 10:44:07
(UTC+00:00)

NNS O-29 - Pass Details

Date: 09 August 2024
Orbit: 1013 x 1173 km, 90.4° (Epoch: 07 September)

Event Time Altitude Azimuth Distance (km) Brightness Sun altitude
Rises 18:27:56 0° 10° (N) 3,809 10.2 -5.4°
Reaches altitude 10° 18:30:31 10° 14° (NNE) 2,839 9.5 -6.0°
Maximum altitude 18:36:53 64° 94° (E) 1,121 7.1 -7.6°
Drops below altitude 10° 18:43:09 10° 175° (S) 2,795 9.2 -9.1°
Sets 18:45:41 0° 178° (S) 3,747 9.9 -9.7°
